| time (UTC) | temp F | wind direction | speed knots | gust knots | rain 1hr in | rain 24hr in | rain mn in | humidity % | barometer mb |
| 20260510153104 | 72 | 314 | 0.9 | 10.4 | 0.00 | 0.23 | 0.00 | ||
| 20260510152104 | 72 | 310 | 2.6 | 11.3 | 0.00 | 0.24 | 0.00 | ||
| 20260510151605 | 74 | 282 | 1.7 | 10.4 | 0.00 | 0.24 | 0.00 | ||
| 20260510151104 | 71 | 332 | 1.7 | 7.8 | 0.00 | 0.24 | 0.00 | ||
| 20260510150604 | 72 | 355 | 2.6 | 7.8 | 0.00 | 0.24 | 0.00 | ||
| 20260510145604 | 70 | 288 | 1.7 | 7.0 | 0.00 | 0.24 | 0.00 | ||
| 20260510144605 | 69 | 295 | 1.7 | 7.0 | 0.00 | 0.24 | 0.00 | ||
| 20260510142104 | 66 | 271 | 0.9 | 5.2 | 0.00 | 0.24 | 0.00 | ||
| 20260510141603 | 67 | 304 | 0.9 | 5.2 | 0.00 | 0.24 | 0.00 | ||
| 20260510140603 | 65 | 285 | 1.7 | 2.6 | 0.00 | 0.24 | 0.00 | ||
| 20260510135604 | 63 | 244 | 1.7 | 2.6 | 0.00 | 0.24 | 0.00 | ||
| 20260510135104 | 63 | 30 | 0.9 | 4.3 | 0.00 | 0.24 | 0.00 | ||
| 20260510134604 | 62 | 231 | 1.7 | 4.3 | 0.00 | 0.24 | 0.00 | ||
| 20260510131604 | 58 | 231 | 0.9 | 2.6 | 0.00 | 0.24 | 0.00 | ||
| 20260510130604 | 58 | 283 | 0.9 | 2.6 | 0.00 | 0.24 | 0.00 | ||
| 20260510125604 | 57 | 274 | 0.9 | 2.6 | 0.00 | 0.24 | 0.00 | ||
| 20260510124604 | 56 | 342 | 0.9 | 2.6 | 0.00 | 0.24 | 0.00 | ||
| 20260510121104 | 55 | 4 | 0.0 | 0.9 | 0.00 | 0.24 | 0.00 | ||
| 20260510120604 | 54 | 4 | 0.0 | 0.0 | 0.00 | 0.24 | 0.00 | ||
| 20260510120104 | 54 | 4 | 0.0 | 0.0 | 0.00 | 0.24 | 0.00 | ||
| 20260510115604 | 53 | 4 | 0.0 | 0.9 | 0.00 | 0.24 | 0.00 | ||
| 20260510115104 | 53 | 4 | 0.9 | 0.9 | 0.00 | 0.25 | 0.00 | ||
| 20260510114104 | 53 | 4 | 0.0 | 0.9 | 0.00 | 0.25 | 0.00 | ||
| 20260510113604 | 53 | 4 | 0.0 | 1.7 | 0.00 | 0.25 | 0.00 | ||
| 20260510112604 | 53 | 4 | 0.9 | 1.7 | 0.00 | 0.25 | 0.00 | ||
| 20260510112104 | 53 | 0 | 0.9 | 1.7 | 0.00 | 0.25 | 0.00 | ||
| 20260510105104 | 51 | 46 | 0.9 | 1.7 | 0.00 | 0.25 | 0.00 | ||
| 20260510104604 | 51 | 47 | 0.0 | 0.0 | 0.00 | 0.25 | 0.00 | ||
| 20260510104104 | 50 | 47 | 0.0 | 0.0 | 0.00 | 0.25 | 0.00 | ||
| 20260510102103 | 50 | 46 | 0.0 | 0.9 | 0.00 | 0.25 | 0.00 | ||
| 20260510101104 | 50 | 47 | 0.0 | 1.7 | 0.00 | 0.25 | 0.00 | ||
| 20260510095603 | 49 | 21 | 0.0 | 1.7 | 0.00 | 0.25 | 0.00 | ||
| 20260510095104 | 49 | 330 | 0.0 | 1.7 | 0.00 | 0.25 | 0.00 | ||
| 20260510092603 | 49 | 290 | 0.0 | 1.7 | 0.00 | 0.25 | 0.00 | ||
| 20260510092103 | 49 | 290 | 0.9 | 1.7 | 0.00 | 0.25 | 0.00 | ||
| 20260510091604 | 49 | 191 | 0.9 | 2.6 | 0.00 | 0.25 | 0.00 | ||
| 20260510090604 | 49 | 190 | 0.0 | 2.6 | 0.00 | 0.25 | 0.00 | ||
| 20260510085104 | 48 | 180 | 1.7 | 2.6 | 0.00 | 0.25 | 0.00 | ||
| 20260510082104 | 49 | 176 | 0.9 | 1.7 | 0.00 | 0.25 | 0.00 | ||
| 20260510081604 | 49 | 249 | 0.0 | 0.9 | 0.00 | 0.25 | 0.00 | ||
| 20260510075604 | 49 | 191 | 0.9 | 1.7 | 0.00 | 0.25 | 0.00 | ||
| 20260510075104 | 49 | 206 | 0.9 | 1.7 | 0.00 | 0.25 | 0.00 | ||
| 20260510074604 | 49 | 172 | 0.9 | 1.7 | 0.00 | 0.25 | 0.00 | ||
| 20260510073604 | 48 | 255 | 0.9 | 1.7 | 0.00 | 0.26 | 0.00 | ||
| 20260510072604 | 48 | 293 | 0.0 | 1.7 | 0.00 | 0.26 | 0.00 | ||
| 20260510070604 | 47 | 351 | 0.0 | 1.7 | 0.00 | 0.28 | 0.00 | ||
| 20260510065104 | 46 | 314 | 0.0 | 0.9 | 0.00 | 0.30 | 0.00 | ||
| 20260510064604 | 46 | 314 | 0.0 | 1.7 | 0.00 | 0.30 | 0.00 | ||
| 20260510063604 | 46 | 261 | 0.0 | 0.0 | 0.00 | 0.30 | 0.00 | ||
| 20260510062603 | 46 | 261 | 0.0 | 0.0 | 0.00 | 0.30 | 0.00 | ||
| 20260510060604 | 45 | 261 | 0.0 | 0.9 | 0.00 | 0.31 | 0.00 | ||
| 20260510054604 | 44 | 262 | 0.0 | 0.9 | 0.00 | 0.31 | 0.00 | ||
| 20260510054104 | 44 | 262 | 0.0 | 0.9 | 0.00 | 0.31 | 0.00 | ||
| 20260510050603 | 44 | 261 | 0.0 | 0.0 | 0.00 | 0.31 | 0.00 | ||
| 20260510050104 | 44 | 262 | 0.0 | 0.0 | 0.00 | 0.31 | 0.00 | ||
| 20260510045604 | 44 | 262 | 0.0 | 0.9 | 0.00 | 0.31 | 0.00 | ||
| 20260510044604 | 44 | 261 | 0.0 | 0.0 | 0.00 | 0.31 | 0.00 | ||
| 20260510044104 | 43 | 262 | 0.0 | 0.0 | 0.00 | 0.31 | 0.00 | ||
| 20260510042604 | 44 | 261 | 0.0 | 0.0 | 0.00 | 0.31 | 0.00 | ||
| 20260510041603 | 44 | 261 | 0.0 | 0.0 | 0.00 | 0.31 | 0.00 | ||
| 20260510040603 | 45 | 262 | 0.0 | 0.0 | 0.00 | 0.31 | 0.00 | ||
| 20260510040104 | 45 | 262 | 0.0 | 0.0 | 0.00 | 0.31 | 0.00 | ||
| 20260510034604 | 45 | 262 | 0.0 | 0.9 | 0.00 | 0.31 | 0.31 | ||
| 20260510034104 | 46 | 261 | 0.0 | 0.0 | 0.00 | 0.31 | 0.31 | ||
| 20260510033604 | 45 | 262 | 0.0 | 0.0 | 0.00 | 0.31 | 0.31 | ||
| 20260510033104 | 45 | 262 | 0.0 | 0.0 | 0.00 | 0.31 | 0.31 | ||
| 20260510030604 | 46 | 262 | 0.0 | 0.9 | 0.00 | 0.31 | 0.31 | ||
| 20260510030104 | 46 | 261 | 0.0 | 0.9 | 0.00 | 0.31 | 0.31 | ||
| 20260510022605 | 47 | 262 | 0.0 | 1.7 | 0.00 | 0.31 | 0.31 | ||
| 20260510021104 | 47 | 261 | 0.0 | 0.0 | 0.00 | 0.31 | 0.31 | ||
| 20260510020105 | 48 | 261 | 0.0 | 1.7 | 0.00 | 0.31 | 0.31 | ||
| 20260510015104 | 48 | 261 | 0.0 | 1.7 | 0.00 | 0.31 | 0.31 | ||
| 20260510014604 | 48 | 261 | 0.0 | 0.9 | 0.00 | 0.31 | 0.31 | ||
| 20260510013604 | 49 | 261 | 0.0 | 1.7 | 0.00 | 0.31 | 0.31 | ||
| 20260510011104 | 50 | 269 | 0.0 | 1.7 | 0.00 | 0.31 | 0.31 | ||
| 20260510010604 | 50 | 264 | 0.0 | 1.7 | 0.00 | 0.31 | 0.31 | ||
| 20260510010104 | 50 | 264 | 0.0 | 1.7 | 0.00 | 0.31 | 0.31 | ||
| 20260510005604 | 51 | 264 | 0.9 | 1.7 | 0.00 | 0.31 | 0.31 | ||
| 20260510004104 | 51 | 203 | 0.9 | 4.3 | 0.00 | 0.31 | 0.31 | ||
| 20260510003604 | 52 | 181 | 1.7 | 4.3 | 0.00 | 0.31 | 0.31 | ||
| 20260510002104 | 52 | 150 | 1.7 | 4.3 | 0.00 | 0.31 | 0.31 | ||
| 20260510001604 | 53 | 160 | 2.6 | 7.8 | 0.00 | 0.31 | 0.31 | ||
| 20260510001104 | 53 | 210 | 0.9 | 7.8 | 0.00 | 0.31 | 0.31 | ||
| 20260510000604 | 53 | 216 | 1.7 | 6.1 | 0.00 | 0.31 | 0.31 | ||
| 20260510000105 | 53 | 158 | 1.7 | 5.2 | 0.00 | 0.31 | 0.31 | ||
| 20260509235605 | 53 | 146 | 1.7 | 4.3 | 0.00 | 0.31 | 0.31 | ||
| 20260509233604 | 54 | 179 | 1.7 | 5.2 | 0.00 | 0.38 | 0.31 | ||
| 20260509233104 | 55 | 228 | 2.6 | 6.1 | 0.00 | 0.38 | 0.31 | ||
| 20260509232604 | 55 | 204 | 1.7 | 6.1 | 0.00 | 0.38 | 0.31 | ||
| 20260509231605 | 56 | 210 | 1.7 | 5.2 | 0.00 | 0.38 | 0.31 | ||
| 20260509231104 | 56 | 210 | 1.7 | 4.3 | 0.00 | 0.38 | 0.31 | ||
| 20260509230104 | 57 | 208 | 1.7 | 2.6 | 0.00 | 0.38 | 0.31 | ||
| 20260509225604 | 57 | 165 | 0.9 | 2.6 | 0.00 | 0.38 | 0.31 | ||
| 20260509225104 | 57 | 186 | 0.9 | 2.6 | 0.00 | 0.38 | 0.31 | ||
| 20260509224604 | 57 | 206 | 0.9 | 2.6 | 0.00 | 0.38 | 0.31 | ||
| 20260509224104 | 56 | 211 | 0.9 | 2.6 | 0.00 | 0.38 | 0.31 | ||
| 20260509223104 | 56 | 231 | 0.9 | 1.7 | 0.00 | 0.38 | 0.31 | ||
| 20260509222604 | 56 | 231 | 0.9 | 2.6 | 0.00 | 0.38 | 0.31 | ||
| 20260509221104 | 56 | 185 | 0.0 | 1.7 | 0.01 | 0.38 | 0.31 | ||
| 20260509220604 | 56 | 184 | 0.9 | 2.6 | 0.01 | 0.38 | 0.31 | ||
| 20260509220104 | 56 | 155 | 0.0 | 2.6 | 0.01 | 0.38 | 0.31 | ||
| 20260509212604 | 57 | 207 | 0.0 | 0.9 | 0.05 | 0.38 | 0.31 | ||
| 20260509211604 | 57 | 207 | 0.0 | 2.6 | 0.05 | 0.37 | 0.30 | ||
| 20260509210603 | 56 | 208 | 0.9 | 2.6 | 0.06 | 0.37 | 0.30 | ||
| 20260509210104 | 57 | 215 | 0.9 | 2.6 | 0.06 | 0.37 | 0.30 | ||
| 20260509204603 | 56 | 236 | 0.9 | 2.6 | 0.06 | 0.36 | 0.29 | ||
| 20260509202604 | 56 | 277 | 0.0 | 1.7 | 0.05 | 0.33 | 0.26 | ||
| 20260509201603 | 56 | 257 | 0.0 | 0.9 | 0.04 | 0.32 | 0.25 | ||
| 20260509200604 | 56 | 296 | 0.0 | 0.9 | 0.04 | 0.31 | 0.24 | ||
| 20260509200104 | 56 | 295 | 0.0 | 1.7 | 0.04 | 0.31 | 0.24 | ||
| 20260509194604 | 56 | 242 | 0.9 | 2.6 | 0.06 | 0.30 | 0.23 | ||
| 20260509194104 | 56 | 270 | 0.0 | 2.6 | 0.07 | 0.30 | 0.23 | ||
| 20260509193104 | 57 | 297 | 0.0 | 0.9 | 0.07 | 0.29 | 0.22 | ||
| 20260509192604 | 57 | 297 | 0.0 | 1.7 | 0.07 | 0.28 | 0.21 | ||
| 20260509191604 | 58 | 300 | 0.9 | 5.2 | 0.07 | 0.28 | 0.21 | ||
| 20260509185104 | 58 | 261 | 0.9 | 5.2 | 0.07 | 0.25 | 0.18 | ||
| 20260509184104 | 58 | 328 | 1.7 | 5.2 | 0.06 | 0.23 | 0.16 | ||
| 20260509183604 | 58 | 339 | 0.9 | 5.2 | 0.06 | 0.22 | 0.15 | ||
| 20260509183104 | 59 | 293 | 1.7 | 7.0 | 0.06 | 0.22 | 0.15 | ||
| 20260509181605 | 59 | 312 | 0.9 | 6.1 | 0.05 | 0.21 | 0.14 | ||
| 20260509181105 | 59 | 342 | 0.9 | 6.1 | 0.04 | 0.20 | 0.13 | ||
| 20260509180605 | 58 | 329 | 0.0 | 6.1 | 0.04 | 0.20 | 0.13 | ||
| 20260509180105 | 58 | 308 | 1.7 | 6.1 | 0.04 | 0.20 | 0.13 | ||
| 20260509175604 | 58 | 341 | 0.9 | 2.6 | 0.03 | 0.19 | 0.12 | ||
| 20260509175104 | 57 | 330 | 1.7 | 2.6 | 0.02 | 0.18 | 0.11 | ||
| 20260509173104 | 59 | 1 | 0.9 | 2.6 | 0.00 | 0.16 | 0.09 | ||
| 20260509172605 | 59 | 61 | 0.9 | 2.6 | 0.00 | 0.16 | 0.09 | ||
| 20260509172105 | 60 | 26 | 0.9 | 2.6 | 0.00 | 0.16 | 0.09 | ||
| 20260509171604 | 60 | 55 | 0.9 | 2.6 | 0.00 | 0.16 | 0.09 | ||
| 20260509171104 | 61 | 46 | 1.7 | 1.7 | 0.00 | 0.16 | 0.09 | ||
| 20260509165105 | 60 | 7 | 0.9 | 2.6 | 0.01 | 0.16 | 0.09 | ||
| 20260509163604 | 60 | 210 | 0.9 | 2.6 | 0.01 | 0.16 | 0.09 | ||
| 20260509163104 | 61 | 171 | 0.0 | 2.6 | 0.01 | 0.16 | 0.09 | ||
| 20260509162604 | 61 | 172 | 0.9 | 2.6 | 0.02 | 0.16 | 0.09 | ||
| 20260509162104 | 60 | 145 | 1.7 | 2.6 | 0.02 | 0.16 | 0.09 | ||
| 20260509161606 | 60 | 122 | 0.9 | 2.6 | 0.02 | 0.16 | 0.09 | ||
| 20260509160604 | 59 | 112 | 0.9 | 1.7 | 0.02 | 0.16 | 0.09 | ||
| 20260509155605 | 58 | 185 | 0.0 | 0.9 | 0.01 | 0.15 | 0.08 | ||
| 20260509155104 | 58 | 185 | 0.9 | 2.6 | 0.01 | 0.15 | 0.08 | ||
| 20260509154104 | 58 | 251 | 0.0 | 1.7 | 0.01 | 0.15 | 0.08 |